Glasgow, MT

6:57 PM MST on December 02, 2016 (GMT -0700)
Wokal-Glasgow International

Weather History for KGGW - September, 2013

Change the Weather History Date:

Wednesday, September 4, 2013

  Actual Average Record
Temperature  
Mean Temperature 72 °F 64 °F  
Max Temperature 80 °F 77 °F 100 °F (1950)
Min Temperature 63 °F 50 °F 29 °F (1935)
Degree Days  
Heating Degree Days 0 4  
Month to date heating degree days 0 15  
Since 1 July heating degree days 15 68  
Cooling Degree Days 7 3  
Month to date cooling degree days 36 12  
Year to date cooling degree days 513 507  
Growing Degree Days 22 (Base 50)    
Moisture  
Dew Point 61 °F    
Average Humidity 73    
Maximum Humidity 93    
Minimum Humidity 53    
Precipitation  
Precipitation 0.09 in 0.03 in 0.43 in (1901)
Month to date precipitation 0.09 0.12  
Year to date precipitation 12.68 9.29  
Snow  
Snow 0.00 in 0.00 in 0.00 in (2002)
Month to date snowfall 0.0 0.0  
Since 1 July snowfall 0.0 0.0  
Since 1 September snowfall 0.0 0.0  
Snow Depth 0.00 in    
Sea Level Pressure  
Sea Level Pressure 30.02 in    
Wind  
Wind Speed 13 mph (ESE)    
Max Wind Speed 20 mph    
Max Gust Speed 25 mph    
Visibility 10 miles    
Events Rain    
T = Trace of Precipitation, MM = Missing Value Source: NWS Daily Summary

Daily Weather History Graph

Daily Weather History Graph

Search for Another Location

Airport or City:

Trip Planner

Search our weather history database for the weather conditions in past years. The results will help you decide how hot, cold, wet, or windy it might be!

Date:

Astronomy

Sep. 04, 2013 Rise Set
Actual Time 6:28 AM MDT 7:41 PM MDT
Civil Twilight 5:56 AM MDT 8:13 PM MDT
Nautical Twilight 5:17 AM MDT 8:51 PM MDT
Astronomical Twilight 4:36 AM MDT 9:32 PM MDT
Moon 5:44 AM MDT (9/4) 6:59 PM MDT (9/4)
Length of Visible Light 14h 16m
Length of Day
13h 12m
Waning Crescent, 1% of the Moon is Illuminated
Sep 4
Waning Crescent
Sep 5
New
Sep 12
First Quarter
Sep 19
Full
Sep 26
Last Quarter

Hourly Weather History & Observations

Time (MDT) Temp. Dew Point Humidity Pressure Visibility Wind Dir Wind Speed Gust Speed Precip Events Conditions
12:53 AM 72.0 °F 54.0 °F 53% 29.97 in 10.0 mi East 19.6 mph - N/A   Clear
1:53 AM 70.0 °F 55.9 °F 61% 29.98 in 10.0 mi East 17.3 mph - N/A   Clear
2:53 AM 68.0 °F 55.9 °F 65% 29.98 in 10.0 mi East 15.0 mph - N/A   Clear
3:53 AM 66.0 °F 57.0 °F 73% 29.98 in 10.0 mi East 12.7 mph - N/A   Clear
4:53 AM 64.0 °F 57.0 °F 78% 29.99 in 10.0 mi East 12.7 mph - N/A   Clear
5:53 AM 64.0 °F 57.0 °F 78% 29.99 in 10.0 mi East 12.7 mph - N/A   Clear
6:53 AM 63.0 °F 57.0 °F 81% 30.01 in 10.0 mi East 10.4 mph - N/A   Clear
7:53 AM 68.0 °F 59.0 °F 73% 30.02 in 10.0 mi East 12.7 mph - N/A   Clear
8:53 AM 70.0 °F 59.0 °F 68% 30.03 in 10.0 mi ESE 16.1 mph - N/A   Clear
9:53 AM 73.9 °F 60.1 °F 62% 30.04 in 10.0 mi ESE 17.3 mph - N/A   Clear
10:53 AM 71.1 °F 61.0 °F 70% 30.08 in 10.0 mi SSE 10.4 mph - 0.00 in Rain Light Rain
11:53 AM 66.9 °F 64.0 °F 90% 30.09 in 6.0 mi SE 9.2 mph - 0.03 in Rain Light Rain
12:53 PM 68.0 °F 64.0 °F 87% 30.06 in 6.0 mi East 12.7 mph - 0.08 in Rain Light Rain
1:53 PM 71.1 °F 66.0 °F 84% 30.04 in 10.0 mi ESE 16.1 mph - 0.00 in   Partly Cloudy
2:53 PM 73.9 °F 64.9 °F 73% 30.04 in 10.0 mi ESE 12.7 mph - N/A   Scattered Clouds
3:53 PM 75.9 °F 64.0 °F 67% 30.03 in 10.0 mi ESE 16.1 mph - 0.00 in   Clear
4:53 PM 77.0 °F 64.0 °F 64% 30.01 in 10.0 mi ESE 16.1 mph - N/A   Clear
5:53 PM 79.0 °F 62.1 °F 56% 30.00 in 10.0 mi East 13.8 mph - N/A   Clear
6:53 PM 77.0 °F 63.0 °F 62% 30.00 in 10.0 mi East 10.4 mph - N/A   Clear
7:53 PM 73.9 °F 64.0 °F 71% 30.01 in 10.0 mi East 11.5 mph - N/A   Clear
8:53 PM 73.0 °F 63.0 °F 71% 30.01 in 10.0 mi East 11.5 mph - N/A   Clear
9:53 PM 72.0 °F 62.1 °F 71% 30.01 in 10.0 mi ESE 11.5 mph - N/A   Clear
10:53 PM 70.0 °F 61.0 °F 73% 30.02 in 10.0 mi ESE 8.1 mph - N/A   Clear
11:53 PM 69.1 °F 60.1 °F 73% 30.02 in 10.0 mi East 9.2 mph - N/A   Clear